Port Hope, MI

5:04 AM EDT on August 28, 2016 (GMT -0400)
Port Hope

Weather History for KP58 - October, 2012

Change the Weather History Date:

Sunday, October 7, 2012

  Actual Average Record
Temperature  
Mean Temperature 43 °F -  
Max Temperature 52 °F 62 °F 84 °F (2007)
Min Temperature 35 °F 46 °F 35 °F (1999)
Degree Days  
Heating Degree Days 22    
Moisture  
Dew Point 30 °F    
Average Humidity 60    
Maximum Humidity 79    
Minimum Humidity 35    
Precipitation  
Precipitation 0.00 in - - ()
Sea Level Pressure  
Sea Level Pressure 30.08 in    
Wind  
Wind Speed 5 mph (West)    
Max Wind Speed 7 mph    
Max Gust Speed -    
Averages and records for this station are not official NWS values.
T = Trace of Precipitation, MM = Missing Value Source: NWS Daily Summary

Daily Weather History Graph

Daily Weather History Graph

Search for Another Location

Airport or City:

Trip Planner

Search our weather history database for the weather conditions in past years. The results will help you decide how hot, cold, wet, or windy it might be!

Date:

Astronomy

Oct. 07, 2012 Rise Set
Actual Time 7:36 AM EDT 7:00 PM EDT
Civil Twilight 7:07 AM EDT 7:29 PM EDT
Nautical Twilight 6:34 AM EDT 8:02 PM EDT
Astronomical Twilight 6:00 AM EDT 8:36 PM EDT
Moon No Moon Rise 2:21 PM EDT (10/7)
Length of Visible Light 12h 21m
Length of Day
11h 23m
Waning Gibbous, 56% of the Moon is Illuminated
Oct 7
Waning Gibbous
Oct 8
Last Quarter
Oct 15
New
Oct 21
First Quarter
Oct 29
Full

Hourly Weather History & Observations

Time (EDT) Temp. Windchill Dew Point Humidity Pressure Visibility Wind Dir Wind Speed Gust Speed Precip Events Conditions
12:51 AM 44.1 °F 40.8 °F 32.0 °F 63% 30.07 in - WNW 5.8 mph - N/A   Unknown
1:51 AM 44.1 °F 40.8 °F 30.9 °F 60% 30.08 in - WNW 5.8 mph - N/A   Unknown
2:51 AM 39.9 °F 37.8 °F 30.0 °F 68% 30.09 in - West 3.5 mph - N/A   Unknown
3:51 AM 37.0 °F 33.3 °F 30.0 °F 76% 30.08 in - WSW 4.6 mph - N/A   Unknown
4:51 AM 36.0 °F 32.1 °F 30.0 °F 79% 30.08 in - WSW 4.6 mph - N/A   Unknown
5:51 AM 35.1 °F 31.0 °F 28.9 °F 78% 30.07 in - WSW 4.6 mph - N/A   Unknown
6:51 AM 36.0 °F 32.1 °F 30.0 °F 79% 30.07 in - WSW 4.6 mph - N/A   Unknown
7:51 AM 37.9 °F 33.5 °F 30.9 °F 76% 30.08 in - WSW 5.8 mph - N/A   Unknown
8:51 AM 42.1 °F 37.7 °F 30.9 °F 65% 30.09 in - West 6.9 mph - N/A   Unknown
9:51 AM 46.9 °F - 30.0 °F 52% 30.09 in - WNW 6.9 mph - N/A   Unknown
10:51 AM 46.9 °F - 28.9 °F 50% 30.10 in - NW 6.9 mph - N/A   Unknown
11:51 AM 48.0 °F - 32.0 °F 54% 30.10 in - WNW 6.9 mph - N/A   Unknown
12:51 PM 48.9 °F - 32.0 °F 52% 30.10 in - NW 6.9 mph - N/A   Unknown
1:51 PM 51.1 °F - 34.0 °F 52% 30.08 in - Calm Calm - N/A   Unknown
2:51 PM 50.0 °F - 30.0 °F 46% 30.07 in - NW 6.9 mph - N/A   Unknown
3:51 PM 51.1 °F - 24.1 °F 35% 30.07 in - Variable 4.6 mph - N/A   Unknown
4:51 PM 48.9 °F - 24.1 °F 38% 30.07 in - Variable 4.6 mph - N/A   Unknown
5:51 PM 48.0 °F - 25.0 °F 41% 30.07 in - WSW 5.8 mph - N/A   Unknown
6:51 PM 46.9 °F - 28.0 °F 48% 30.07 in - WSW 3.5 mph - N/A   Unknown
7:51 PM 44.1 °F - 30.9 °F 60% 30.08 in - Calm Calm - N/A   Unknown
8:51 PM 45.0 °F - 32.0 °F 60% 30.09 in - Calm Calm - N/A   Unknown
9:51 PM 42.1 °F - 34.0 °F 73% 30.09 in - Calm Calm - N/A   Unknown
10:51 PM 44.1 °F - 34.0 °F 68% 30.10 in - Calm Calm - N/A   Unknown
11:51 PM 44.1 °F 41.5 °F 33.1 °F 65% 30.10 in - WSW 4.6 mph - N/A   Unknown